Miscellaneous Local Product
Issued by NWS North Platte, NE

Home | Current Version | Previous Version | Text Only | Print | Product List | Glossary On
Versions: 1 2 3 4 5 6 7 8 9 10 11 12 13 14 15 16 17 18 19 20 21 22 23 24 25 26 27 28 29 30 31 32 33 34 35 36 37 38 39 40 41 42 43 44 45 46 47 48 49 50
000
AXUS43 KLBF 250110
MISLBF


WESTERN AND NORTH CENTRAL NEBRASKA HOURLY WEATHER ROUNDUP
NATIONAL WEATHER SERVICE NORTH PLATTE NE
700 PM CST MON NOV 24 2014

***STATIONS NOT REPORTING VARIABLES SUCH AS SKY/WEATHER OR
PRESSURE ARE PROVIDED BY THE NEBRASKA DEPARTMENT OF
ROADS...RAWS...AND APRS NETWORKS...AND ARE NOT UNDER
NATIONAL WEATHER SERVICE QUALITY CONTROL***

...OBSERVATIONS IN AND NEAR THE EASTERN PANHANDLE OF NEBRASKA...

CITY           SKY/WX    TMP DP  RH WIND       PRES   REMARKS
PINE RIDGE     PTCLDY    26  24  92 W6        30.08R WCI  19
CHADRON        CLOUDY    28  26  92 W7        30.11S WCI  21
ALLIANCE       PTCLDY    32  21  64 N15       30.08R WCI  22
SIDNEY         PTCLDY    31  18  58 NW14      30.10R WCI  21
WHITECLAY        N/A     25  23  91 NW3         N/A
CRESCENT LAKE    N/A     32  19  59 N9G21       N/A  WCI  24
LISCO            N/A     38  17  42 W20         N/A  WCI  28
BIG SPRINGS      N/A     35  25  66 NW5         N/A  WCI  31
$$

...OBSERVATIONS IN NORTH CENTRAL NEBRASKA...

CITY           SKY/WX    TMP DP  RH WIND       PRES   REMARKS
VALENTINE      CLEAR     23  16  74 W6        30.04R WCI  16
THEDFORD       MOCLDY    31  22  69 NW8       30.04R WCI  23
AINSWORTH      CLEAR     24  15  66 NW3       30.03R
O`NEILL        CLEAR     24   9  51 NW10      30.03R WCI  14
ORD            PTCLDY    22   7  52 NW8       30.03R WCI  12
BROKEN BOW     PTCLDY    28  16  60 N9        30.02R WCI  19
BROWNLEE         N/A     26  16  65 N8          N/A  WCI  18
SPRINGVIEW       N/A     25  13  60 W3          N/A
BREWSTER         N/A     29  19  64 NW7         N/A  WCI  22
SARGENT          N/A     25  12  56 CALM        N/A
COMSTOCK         N/A     30  16  56 N5          N/A  WCI  25
CHAMBERS         N/A     25   5  41 NW6         N/A  WCI  18
EWING            N/A     25  10  51 CALM        N/A
$$

...OBSERVATIONS IN SOUTHWEST NEBRASKA AND FAR NORTHEAST COLORADO...

CITY           SKY/WX    TMP DP  RH WIND       PRES   REMARKS
WRAY           FAIR      34  27  77 W9        30.10R WCI  26
HOLYOKE        FAIR      36  25  64 NW15G21   30.09R WCI  26
IMPERIAL       MOCLDY    34  28  79 NW12      30.07R WCI  25
OGALLALA       CLOUDY    38  29  70 N17       30.07R WCI  29
NORTH PLATTE   CLOUDY    36  25  64 NW14      30.05R WCI  27
MCCOOK         PTCLDY    38  29  70 NW20G25   30.05R WCI  28
LEXINGTON      CLEAR     28  17  62 NW9       30.04R WCI  19
PAXTON           N/A     36  32  86 NW5         N/A  WCI  32
BRADY            N/A     34  22  62 CALM        N/A
GOTHENBURG       N/A     34  20  57 NW8         N/A  WCI  27
CALLAWAY         N/A     32  22  66 NW7         N/A  WCI  26
$$

...SOME WEATHER OBSERVATIONS FROM AROUND THE REGION...

CITY           SKY/WX    TMP DP  RH WIND       PRES   REMARKS
DENVER         PTCLDY    26  18  71 NW9       30.17R WCI  17
LARAMIE        PTCLDY    19   9  65 NW12      30.14R WCI   7
CHEYENNE       LGT SNOW  24  19  81 NW14      30.14R WCI  12
SCOTTSBLUFF    FLURRIES  33  24  69 NW17G31   30.13R WCI  22
RAPID CITY     MOCLDY    26  20  77 NW10      30.06R WCI  16
PIERRE         PTCLDY    20   9  62 NW7       30.03R WCI  11
WINNER         FAIR      21   9  59 NW8       30.04R WCI  11
SIOUX FALLS    CLEAR     22  14  71 NW21      29.95R WCI   6
OMAHA          CLEAR     30  12  47 NW18      29.97R WCI  18
GRAND ISLAND   CLEAR     29  10  45 NW12      30.03R WCI  19
KANSAS CITY    CLEAR     33  22  63 W9        29.97R WCI  25
WICHITA        PTCLDY    42  17  36 N5        30.04R
HAYS           MOCLDY    37  12  35 NW5       30.05R WCI  34
LIBERAL        PTCLDY    36  10  35 NW9       30.10R WCI  29
GOODLAND       PTCLDY    34  26  72 NW15      30.09R WCI  24
$$



USA.gov is the U.S. government's official web portal to all federal, state and local government web resources and services.